Temperature
-0 -0 -0 -0 0 0 0 0 0 0 0 0 0 0 0 0 0 0 0 0 0 0 1 1 1 1 1 1 1 1 0 0 0 1 1 1 1 1 1 1 1 1 1
-1 -1 -1 -1 -1 -1 -1 -0 -0 -0 -0 -0 -0 -0 -0 -0 -0 -0 -0 -0 -0 -0 -0 0 0 -0 0 0 0 0 -0 -0 -0 -0 0 0 0 0 0 -0 0 0 0
-2 -2 -2 -2 -1 -1 -1 -1 -1 -1 -1 -1 -1 -1 -1 -1 -1 -1 -1 -1 -1 -1 -1 -1 -1 -1 -1 -0 -1 -1 -1 -1 -1 -1 -1 -1 -1 -1 -1 -0 -0 -0 -0
-2 -2 -2 -2 -2 -2 -2 -2 -2 -1 -1 -1 -1 -2 -2 -2 -1 -1 -1 -1 -1 -1 -1 -1 -1 -1 -1 -1 -1 -1 -1 -1 -1 -1 -1 -1 -1 -1 -2 -1 -1 -1 -1
-3 -3 -2 -2 -3 -3 -3 -2 -2 -2 -2 -2 -2 -2 -2 -2 -2 -2 -2 -2 -2 -2 -2 -2 -2 -2 -2 -2 -2 -2 -2 -2 -2 -2 -2 -2 -2 -2 -2 -2 -2 -2 -2
-3 -3 -3 -3 -3 -3 -3 -3 -3 -3 -3 -3 -3 -3 -3 -3 -3 -3 -3 -3 -3 -3 -3 -3 -3 -2 -2 -2 -3 -3 -3 -3 -3 -3 -3 -3 -3 -3 -3 -3 -3 -3 -3
-4 -4 -4 -4 -4 -4 -4 -4 -4 -4 -4 -4 -4 -3 -3 -3 -3 -3 -3 -4 -3 -3 -3 -3 -3 -3 -3 -3 -3 -3 -3 -3 -3 -4 -4 -3 -3 -3 -3 -3 -3 -3 -3
-5 -5 -5 -5 -5 -5 -4 -4 -4 -5 -4 -4 -4 -4 -4 -4 -4 -4 -4 -4 -4 -4 -4 -4 -4 -4 -4 -4 -4 -4 -4 -4 -4 -4 -4 -4 -4 -4 -4 -4 -4 -4 -4
-5 -5 -5 -5 -5 -5 -5 -5 -5 -5 -5 -5 -5 -5 -5 -5 -5 -5 -5 -5 -5 -5 -5 -5 -5 -5 -5 -5 -5 -5 -5 -4 -4 -5 -5 -5 -5 -5 -5 -5 -5 -5 -5
-6 -6 -6 -6 -6 -6 -6 -6 -6 -6 -6 -6 -6 -6 -6 -6 -6 -6 -6 -6 -6 -6 -6 -6 -6 -6 -6 -6 -6 -6 -5 -5 -5 -5 -5 -5 -5 -5 -5 -5 -5 -6 -6
-7 -7 -7 -7 -7 -7 -7 -7 -7 -7 -7 -7 -7 -7 -7 -7 -7 -7 -7 -7 -7 -7 -7 -7 -7 -6 -6 -6 -6 -6 -6 -6 -6 -6 -6 -6 -6 -6 -6 -6 -6 -6 -6
-7 -7 -7 -7 -7 -7 -7 -7 -7 -7 -7 -7 -7 -7 -7 -7 -7 -7 -7 -8 -8 -8 -7 -7 -7 -7 -7 -7 -7 -7 -7 -7 -7 -7 -7 -7 -7 -7 -7 -7 -7 -7 -7
-8 -8 -8 -8 -8 -8 -8 -8 -8 -8 -8 -8 -8 -8 -8 -8 -8 -8 -8 -8 -8 -8 -8 -8 -8 -8 -8 -8 -7 -7 -7 -7 -7 -8 -8 -7 -7 -8 -8 -7 -7 -7 -7
-8 -8 -9 -8 -8 -8 -9 -9 -9 -9 -9 -9 -9 -9 -9 -9 -9 -9 -9 -9 -9 -9 -9 -9 -8 -8 -8 -8 -8 -8 -8 -8 -8 -8 -8 -8 -8 -8 -8 -8 -8 -8 -8
-9 -9 -9 -9 -9 -9 -9 -9 -9 -9 -10 -10 -10 -10 -10 -10 -10 -10 -10 -9 -9 -9 -9 -9 -9 -9 -9 -9 -9 -9 -9 -9 -9 -9 -9 -9 -9 -9 -9 -9 -9 -9 -9
-10 -10 -10 -10 -10 -10 -10 -10 -10 -10 -10 -10 -10 -10 -10 -10 -10 -10 -10 -10 -10 -10 -10 -9 -9 -9 -9 -9 -9 -9 -9 -9 -9 -9 -9 -9 -9 -9 -9 -9 -9 -9 -9
-10 -10 -10 -11 -11 -11 -11 -11 -11 -10 -10 -10 -10 -10 -11 -10 -10 -10 -10 -10 -10 -10 -10 -10 -10 -10 -10 -10 -10 -10 -10 -10 -10 -10 -10 -10 -10 -10 -10 -10 -10 -10 -10
-11 -11 -11 -11 -11 -11 -11 -11 -11 -11 -11 -11 -11 -11 -11 -11 -11 -11 -11 -11 -11 -11 -11 -11 -11 -11 -11 -11 -10 -10 -10 -10 -10 -10 -10 -10 -10 -10 -11 -11 -11 -11 -11
-12 -12 -12 -12 -12 -12 -12 -12 -12 -12 -12 -12 -11 -11 -11 -11 -11 -11 -11 -11 -11 -11 -11 -11 -11 -11 -11 -11 -11 -11 -11 -11 -11 -11 -11 -11 -11 -11 -11 -11 -11 -11 -11
-12 -12 -12 -12 -12 -13 -13 -12 -12 -12 -12 -12 -12 -12 -12 -12 -12 -12 -12 -12 -12 -12 -12 -12 -12 -12 -12 -12 -12 -11 -11 -11 -11 -11 -11 -11 -11 -11 -11 -11 -11 -11 -11
-13 -13 -13 -13 -13 -13 -13 -13 -13 -13 -13 -13 -13 -13 -13 -13 -13 -13 -13 -13 -13 -13 -13 -13 -12 -12 -12 -12 -12 -12 -12 -12 -12 -12 -12 -12 -12 -12 -12 -12 -12 -12 -12
-13 -13 -13 -13 -13 -13 -13 -14 -14 -13 -13 -13 -13 -13 -13 -13 -13 -13 -13 -13 -13 -13 -13 -13 -13 -13 -13 -13 -12 -12 -12 -12 -12 -12 -12 -12 -12 -12 -12 -12 -12 -12 -12
-13 -14 -14 -14 -14 -14 -14 -14 -14 -14 -14 -14 -14 -14 -14 -14 -14 -14 -14 -14 -14 -14 -13 -13 -13 -13 -13 -13 -13 -13 -13 -12 -12 -13 -13 -12 -12 -12 -12 -12 -12 -12 -12
-14 -14 -14 -14 -14 -14 -14 -14 -14 -14 -14 -14 -14 -14 -14 -14 -14 -14 -14 -14 -14 -14 -14 -14 -14 -13 -13 -13 -13 -13 -13 -13 -13 -13 -13 -13 -13 -13 -13 -13 -13 -13 -13
-14 -14 -14 -14 -14 -14 -14 -14 -15 -14 -14 -15 -15 -15 -15 -15 -15 -14 -14 -14 -14 -14 -14 -14 -14 -13 -13 -13 -13 -13 -13 -13 -13 -13 -13 -13 -13 -13 -13 -13 -13 -13 -13
-15 -15 -15 -15 -15 -15 -15 -15 -15 -15 -15 -15 -15 -15 -15 -15 -15 -15 -15 -15 -15 -15 -14 -14 -14 -14 -14 -13 -13 -13 -13 -13 -13 -13 -13 -13 -13 -13 -13 -13 -13 -13 -13
Wind_Speed
2 2 2 2 2 1 1 2 2 1 1 2 2 1 2 2 2 2 3 3 3 3 3 3 4 3 3 3 2 3 3 3 5 4 2 2 2 2 3 4 4 4 5
2 2 2 2 1 1 1 2 1 2 2 2 2 1 2 2 2 3 3 3 4 4 4 4 4 3 4 3 3 4 4 4 4 5 3 2 2 3 2 2 3 4 5
1 1 1 2 2 2 2 2 2 2 2 2 2 2 2 3 3 3 3 4 4 5 5 5 5 5 5 4 4 4 4 4 4 4 4 2 2 2 2 3 3 3 5
1 1 1 2 2 2 2 2 2 2 2 2 2 2 3 3 3 3 3 3 4 4 5 5 5 6 6 6 5 5 4 4 3 3 3 2 2 2 2 2 3 2 3
1 1 2 2 2 2 2 2 2 2 2 2 2 3 3 3 3 3 3 3 3 4 4 5 5 6 7 6 5 5 5 4 4 3 4 3 2 2 3 2 3 3 3
1 2 2 2 2 2 2 2 2 2 2 2 2 2 3 3 5 5 4 3 3 4 4 4 5 6 7 7 8 7 6 5 5 5 5 5 5 4 3 3 3 2 3
1 2 2 2 2 2 2 2 2 2 2 2 2 2 3 4 6 6 4 3 3 4 4 4 4 5 5 4 6 6 6 7 7 6 6 7 6 5 4 4 4 4 5
1 2 2 2 2 2 2 2 2 2 2 2 3 3 3 4 6 5 4 3 3 3 4 5 5 5 5 5 4 4 4 5 6 5 5 6 5 5 6 5 5 4 3
2 2 2 2 2 2 2 3 2 2 2 2 2 2 2 4 5 5 5 2 2 3 4 4 5 5 7 7 5 5 5 5 5 6 6 6 6 6 5 2 3 3 4
3 3 3 2 2 2 3 3 2 2 2 2 3 2 3 3 5 5 5 2 2 3 3 4 5 6 7 7 5 5 6 5 4 4 4 4 4 4 5 4 4 4 3
2 2 2 2 2 3 2 2 2 2 2 2 3 3 3 4 5 6 5 2 3 3 3 3 4 7 8 8 7 5 7 5 3 3 3 3 2 2 3 4 4 4 5
1 2 2 2 2 2 1 2 2 1 1 2 2 3 2 3 4 5 6 6 5 4 4 4 4 7 8 7 6 6 7 5 2 3 3 3 3 3 4 5 6 6 6
1 2 2 2 2 2 2 2 2 1 1 2 2 2 3 3 4 7 7 7 7 4 4 6 7 8 6 5 7 7 5 3 3 3 4 4 3 4 3 3 3 3 4
1 2 2 2 2 2 2 2 2 2 2 2 2 2 3 3 3 3 3 4 5 5 4 5 7 6 5 5 5 4 3 3 4 4 4 3 3 3 3 3 3 2 2
1 2 2 2 2 2 2 2 3 3 3 3 2 3 3 4 5 7 5 4 3 3 2 2 2 2 2 2 2 2 2 3 3 3 3 3 3 3 3 3 3 3 3
2 2 2 2 2 2 2 3 5 4 6 6 6 5 5 6 8 8 8 8 7 6 3 2 2 2 3 3 3 3 3 3 3 4 4 4 4 4 4 3 3 4 4
2 2 2 2 2 2 2 2 3 4 5 5 6 7 7 7 8 8 8 7 6 5 2 2 2 3 3 3 3 3 4 3 3 3 4 4 4 4 4 4 4 4 4
2 3 3 2 2 2 2 3 3 3 4 3 5 7 7 7 7 8 7 5 3 3 2 2 3 3 3 3 3 3 3 3 3 4 4 4 4 4 4 4 4 4 4
2 2 2 2 2 2 2 2 2 3 3 3 4 5 7 7 7 7 6 2 2 3 3 3 3 3 3 3 3 3 3 3 3 4 4 5 4 4 5 5 5 6 5
2 4 3 2 2 2 2 2 3 3 3 3 3 4 4 4 3 4 3 2 2 3 3 3 3 4 3 3 4 3 3 3 4 4 4 4 5 5 5 6 5 5 5
2 2 4 3 2 2 2 3 3 3 3 3 4 5 6 3 3 3 3 3 3 3 3 4 4 4 4 4 3 4 4 4 3 4 4 4 4 4 5 5 5 5 4
2 2 2 2 3 3 3 3 3 3 3 4 4 4 6 4 3 3 3 4 4 3 4 4 4 4 4 4 4 4 4 4 4 4 4 4 4 4 4 4 4 4 4
2 3 3 3 3 4 4 3 3 3 4 4 4 4 4 3 3 4 4 4 4 4 4 4 5 5 5 6 6 5 5 5 5 5 5 4 4 4 4 4 4 4 4
2 3 3 3 3 3 3 3 3 4 4 4 4 4 4 4 4 5 4 4 4 5 5 5 6 7 8 8 7 8 8 9 8 7 7 6 6 5 4 5 5 5 5
2 2 2 3 3 3 3 4 4 4 4 4 4 4 4 4 5 5 5 5 5 6 7 7 7 8 9 9 9 10 11 11 11 9 8 7 6 6 5 5 5 5 4
2 2 3 3 3 3 4 4 4 4 4 5 4 4 5 5 5 5 5 5 6 6 7 8 9 10 10 10 11 12 12 12 12 11 7 5 6 5 5 5 5 5 5
Wind_Direction
352 351 355 342 339 347 339 318 318 297 264 262 251 244 255 258 242 232 235 226 220 230 231 225 238 240 228 221 218 223 226 228 247 267 265 287 281 291 300 286 282 286 290
337 344 343 337 346 351 334 326 320 316 302 279 256 249 257 260 254 241 238 233 228 232 233 229 236 238 234 223 218 225 227 229 233 257 270 272 270 271 284 293 296 287 286
342 340 340 339 334 328 322 319 322 317 320 312 283 257 259 257 254 250 241 240 236 236 235 231 232 229 236 229 221 222 229 238 234 240 259 262 278 281 291 299 304 299 292
350 345 334 322 316 313 320 326 323 317 314 299 295 271 258 254 251 250 245 242 243 246 244 236 233 229 232 230 225 222 222 229 230 235 253 259 264 265 256 276 294 295 304
341 332 318 319 323 330 333 328 322 316 309 302 300 300 284 266 252 248 247 244 245 254 252 244 241 239 240 238 232 221 216 220 224 233 247 255 249 251 251 252 269 287 291
329 314 323 335 340 337 333 332 328 323 316 306 296 293 294 289 278 269 264 243 247 248 255 255 251 246 248 250 248 242 229 225 226 230 241 245 246 243 240 251 259 280 278
317 320 330 333 330 325 327 337 331 323 315 308 297 286 281 287 293 285 272 254 248 252 249 251 262 257 256 245 251 249 247 246 235 229 235 238 238 232 227 237 237 244 260
317 317 321 325 318 317 322 322 319 313 304 302 297 286 285 293 296 298 288 269 253 256 253 246 249 256 248 240 239 239 239 245 239 230 229 235 236 227 220 228 232 254 281
311 309 307 302 304 307 307 307 309 312 312 304 296 296 293 298 302 300 305 290 267 265 264 259 253 253 257 250 240 240 248 254 248 243 247 253 259 254 239 219 222 241 273
291 295 299 296 287 286 287 295 301 298 297 300 301 299 290 293 303 305 302 285 282 283 279 267 262 259 263 260 240 235 242 250 245 249 257 266 261 252 239 220 216 230 253
295 302 302 298 287 279 285 290 291 297 308 307 300 300 291 290 302 305 303 288 273 279 281 278 270 270 269 266 258 243 246 248 231 226 237 245 245 240 236 236 231 228 235
304 304 304 306 301 301 293 296 297 288 301 305 304 304 296 294 300 301 302 297 288 275 274 274 272 278 277 273 266 260 263 257 225 226 235 244 249 247 244 243 244 246 243
313 307 306 311 310 305 298 296 300 286 278 290 297 302 307 304 299 300 300 300 297 292 277 275 278 283 285 280 272 267 260 242 229 234 239 244 243 245 247 246 248 257 269
300 304 305 313 315 315 302 289 284 275 273 279 283 289 297 303 301 297 293 297 296 295 291 281 283 282 283 281 280 272 252 239 236 238 241 247 244 236 237 236 243 245 264
292 293 302 305 300 307 307 289 283 263 255 262 263 266 278 290 293 299 298 291 284 274 291 297 287 278 272 271 274 264 247 243 248 245 241 241 248 247 246 234 231 231 238
283 291 290 293 296 301 309 318 312 299 299 297 292 288 283 284 296 301 302 301 300 293 290 276 270 260 258 257 258 262 254 243 244 245 242 239 241 244 248 244 230 227 239
253 273 279 289 293 295 296 302 313 325 322 316 312 309 306 303 305 309 310 309 310 311 302 283 278 272 269 262 257 256 257 250 241 240 242 241 240 241 244 241 235 234 245
268 279 286 276 279 278 280 286 290 300 314 319 319 318 318 316 314 319 324 328 330 341 318 289 283 282 277 273 269 264 259 255 247 243 240 236 232 234 237 237 236 235 244
274 270 270 274 276 275 280 286 287 289 294 304 315 321 326 326 328 332 339 344 321 315 311 299 288 284 280 277 273 269 264 256 250 246 243 236 231 231 236 234 235 241 246
274 284 296 290 285 285 285 285 286 288 293 298 304 309 319 323 326 330 332 322 305 300 300 300 298 291 283 277 272 269 264 260 254 248 246 241 236 231 233 234 233 236 243
274 279 296 299 287 282 283 281 282 284 287 292 293 295 303 305 306 311 313 312 303 299 296 293 291 290 288 283 273 265 259 259 252 248 247 243 238 236 234 232 233 235 238
271 271 272 273 278 276 279 280 282 280 281 285 293 301 308 315 308 303 301 300 300 298 295 294 290 286 283 282 275 265 260 258 252 246 247 245 242 239 235 231 232 235 234
270 273 277 280 280 282 292 286 280 277 279 282 287 292 299 299 297 295 296 300 304 303 299 294 292 289 287 283 274 260 254 253 251 247 241 241 240 238 234 232 231 234 235
263 263 265 272 276 276 280 283 282 280 280 283 285 286 288 290 292 293 296 300 300 299 296 292 288 288 287 287 284 276 267 264 260 252 240 233 233 235 232 232 233 231 232
262 266 268 270 274 276 280 282 283 283 282 283 282 285 288 290 290 292 296 298 299 297 295 294 291 290 289 285 283 280 275 272 271 263 241 232 228 229 230 229 229 228 228
261 261 266 268 269 270 271 274 278 279 279 281 281 281 283 285 287 291 294 297 299 298 297 296 294 293 293 291 286 282 280 277 274 270 254 228 223 229 226 228 224 225 221
Height
1482 1483 1483 1484 1485 1485 1486 1486 1487 1488 1489 1490 1490 1491 1491 1492 1493 1493 1494 1495 1495 1496 1497 1498 1499 1500 1501 1501 1502 1503 1504 1505 1504 1504 1505 1506 1507 1507 1507 1508 1508 1508 1508
1479 1480 1480 1481 1481 1482 1482 1483 1484 1484 1485 1486 1486 1487 1487 1488 1488 1489 1489 1490 1491 1491 1492 1493 1494 1495 1495 1496 1497 1498 1499 1500 1500 1499 1499 1500 1501 1502 1502 1502 1502 1503 1503
1476 1477 1477 1478 1478 1478 1478 1479 1479 1480 1481 1481 1482 1482 1483 1483 1484 1484 1484 1485 1485 1486 1487 1488 1488 1489 1490 1491 1491 1492 1493 1494 1494 1494 1493 1494 1495 1496 1496 1496 1496 1497 1497
1474 1474 1474 1474 1475 1475 1475 1475 1475 1475 1476 1477 1477 1477 1478 1478 1479 1479 1479 1480 1480 1480 1481 1482 1483 1484 1484 1485 1486 1487 1488 1488 1488 1488 1489 1489 1490 1490 1490 1490 1490 1491 1491
1471 1471 1471 1471 1471 1471 1471 1471 1471 1471 1471 1472 1472 1473 1473 1473 1474 1474 1474 1475 1475 1475 1476 1477 1478 1478 1479 1480 1481 1481 1482 1482 1483 1483 1483 1483 1484 1484 1485 1484 1484 1484 1485
1468 1468 1468 1468 1468 1468 1468 1467 1467 1467 1467 1467 1467 1468 1468 1468 1469 1469 1469 1469 1470 1470 1471 1471 1472 1473 1473 1474 1475 1476 1477 1477 1477 1477 1477 1477 1478 1479 1479 1479 1479 1479 1478
1465 1465 1465 1465 1465 1464 1464 1464 1463 1463 1463 1463 1463 1463 1463 1463 1464 1464 1464 1464 1464 1465 1465 1466 1467 1467 1468 1468 1469 1470 1471 1471 1472 1473 1472 1472 1473 1473 1474 1473 1474 1474 1473
1462 1462 1462 1462 1461 1461 1460 1460 1460 1459 1459 1459 1458 1458 1458 1459 1459 1459 1459 1459 1459 1460 1460 1461 1462 1462 1463 1463 1464 1464 1464 1465 1466 1466 1466 1467 1468 1468 1469 1469 1469 1468 1468
1459 1459 1459 1458 1458 1457 1457 1457 1456 1456 1455 1455 1455 1454 1454 1454 1455 1455 1455 1455 1455 1455 1455 1456 1456 1456 1457 1458 1458 1458 1458 1459 1459 1460 1461 1461 1462 1462 1463 1463 1463 1463 1461
1456 1456 1455 1455 1454 1454 1453 1453 1453 1452 1452 1451 1451 1451 1450 1450 1451 1451 1451 1451 1450 1450 1450 1451 1451 1451 1452 1452 1453 1453 1452 1453 1454 1454 1454 1455 1455 1456 1457 1457 1457 1457 1456
1452 1452 1452 1452 1451 1450 1450 1450 1449 1449 1448 1448 1447 1447 1447 1447 1447 1447 1447 1447 1446 1446 1446 1446 1446 1446 1447 1448 1448 1448 1447 1448 1448 1448 1448 1449 1449 1450 1450 1451 1452 1452 1451
1449 1449 1449 1448 1448 1447 1447 1446 1446 1445 1444 1444 1443 1443 1443 1443 1443 1443 1443 1443 1443 1442 1442 1442 1442 1442 1442 1442 1442 1443 1443 1443 1443 1443 1443 1443 1443 1444 1445 1445 1446 1446 1446
1446 1446 1445 1445 1445 1444 1443 1443 1442 1442 1441 1440 1440 1440 1439 1440 1440 1440 1440 1439 1439 1438 1437 1437 1438 1437 1437 1437 1437 1438 1438 1438 1437 1437 1437 1437 1438 1439 1440 1440 1440 1441 1441
1443 1443 1442 1442 1441 1441 1440 1440 1439 1439 1438 1437 1437 1437 1436 1436 1436 1436 1435 1435 1434 1434 1433 1433 1433 1433 1432 1432 1432 1432 1433 1433 1433 1433 1432 1433 1433 1434 1434 1435 1435 1435 1435
1440 1440 1440 1439 1438 1438 1437 1437 1436 1436 1436 1435 1435 1434 1433 1433 1433 1433 1432 1431 1431 1430 1429 1428 1428 1428 1427 1427 1427 1427 1428 1428 1428 1428 1428 1428 1428 1428 1429 1430 1430 1430 1430
1437 1437 1437 1436 1435 1435 1434 1434 1433 1433 1433 1433 1432 1432 1431 1431 1430 1429 1429 1428 1427 1427 1426 1424 1424 1423 1423 1422 1422 1422 1423 1423 1423 1423 1423 1423 1423 1423 1424 1424 1425 1425 1424
1435 1434 1434 1433 1432 1432 1431 1430 1429 1430 1430 1429 1429 1429 1428 1427 1427 1426 1425 1424 1423 1423 1422 1420 1420 1419 1419 1418 1418 1418 1418 1418 1418 1418 1418 1418 1419 1419 1419 1419 1419 1419 1419
1432 1432 1431 1430 1429 1429 1428 1428 1427 1426 1425 1425 1426 1425 1424 1424 1423 1422 1421 1420 1419 1418 1417 1416 1416 1415 1415 1414 1414 1414 1413 1413 1413 1413 1413 1414 1414 1414 1414 1414 1415 1414 1415
1429 1429 1428 1427 1427 1426 1425 1425 1424 1423 1423 1422 1421 1421 1421 1420 1419 1418 1417 1416 1415 1414 1413 1413 1412 1411 1410 1410 1409 1409 1409 1408 1408 1409 1409 1409 1409 1409 1409 1409 1410 1410 1410
1426 1426 1425 1424 1423 1423 1422 1422 1421 1420 1419 1419 1418 1417 1417 1416 1414 1414 1413 1412 1411 1410 1409 1409 1408 1407 1406 1406 1405 1405 1404 1404 1404 1404 1404 1404 1404 1404 1404 1404 1404 1404 1404
1423 1422 1422 1421 1420 1420 1419 1419 1418 1417 1416 1415 1415 1414 1414 1413 1411 1410 1409 1409 1408 1407 1406 1405 1404 1403 1402 1401 1401 1400 1400 1399 1399 1399 1399 1399 1399 1399 1399 1400 1400 1400 1400
1420 1419 1418 1418 1417 1417 1416 1415 1415 1414 1413 1412 1411 1411 1410 1409 1408 1407 1406 1405 1404 1403 1402 1401 1399 1399 1398 1397 1396 1396 1395 1395 1395 1394 1394 1394 1394 1394 1395 1395 1395 1395 1395
1417 1416 1415 1415 1414 1413 1413 1412 1411 1410 1409 1409 1408 1407 1406 1405 1404 1403 1402 1401 1400 1399 1397 1396 1395 1394 1393 1393 1392 1391 1391 1390 1390 1390 1390 1390 1390 1390 1390 1390 1390 1390 1390
1413 1413 1412 1411 1410 1409 1409 1408 1407 1406 1406 1405 1404 1403 1402 1401 1400 1399 1398 1396 1395 1394 1393 1392 1390 1389 1389 1388 1387 1387 1386 1386 1386 1386 1386 1386 1386 1386 1386 1386 1386 1386 1386
1410 1409 1408 1408 1407 1406 1405 1404 1403 1402 1402 1401 1400 1399 1398 1397 1396 1395 1394 1392 1391 1389 1388 1387 1386 1385 1384 1383 1383 1382 1382 1382 1382 1381 1381 1381 1381 1381 1381 1381 1381 1381 1382
1407 1406 1405 1404 1403 1402 1401 1400 1399 1398 1398 1397 1396 1395 1394 1393 1392 1391 1389 1388 1386 1385 1384 1383 1381 1380 1380 1379 1378 1378 1377 1377 1377 1377 1377 1377 1377 1377 1377 1377 1377 1377 1377